Weather History for Bettles, AK

Change the Weather History Date:

Tuesday, November 13, 2012

  Actual Average Record
Temperature  
Mean Temperature -16 °F -  
Max Temperature -7 °F 7 °F 45 °F (1976)
Min Temperature -24 °F -6 °F -44 °F (1958)
Degree Days  
Heating Degree Days 82    
Moisture  
Dew Point -20 °F    
Average Humidity 75    
Maximum Humidity 79    
Minimum Humidity 60    
Precipitation  
Precipitation 0.00 in - - ()
Snow  
Snow 0.00 in - - ()
Snow Depth 1.00 in    
Sea Level Pressure  
Sea Level Pressure 30.22 in    
Wind  
Wind Speed 2 mph (North)    
Max Wind Speed 8 mph    
Max Gust Speed -    
Visibility 10 miles    
Events      
Averages and records for this station are not official NWS values.
T = Trace of Precipitation, MM = Missing Value Source: NWS Daily Summary

Daily Weather History Graph

Daily Weather History Graph

Search for Another Location

Airport:

Trip Planner

Search our weather history database for the weather conditions in past years. The results will help you decide how hot, cold, wet, or windy it might be!

Date:

Astronomy

Nov. 13, 2012 Rise Set
Actual Time 9:59 AM AKST 3:41 PM AKST
Civil Twilight 8:48 AM AKST 4:51 PM AKST
Nautical Twilight 7:39 AM AKST 6:00 PM AKST
Astronomical Twilight 6:36 AM AKST 7:02 PM AKST
Moon 10:07 AM AKST (11/13) 3:19 PM AKST (11/13)
Length of Visible Light 8h 03m
Length of Day
5h 41m
Waning Crescent, 0% of the Moon is Illuminated
Nov 13
Waning Crescent
Nov 13
New
Nov 20
First Quarter
Nov 28
Full
Dec 6
Last Quarter

Hourly Weather History & Observations

Time (AKST) Temp. Windchill Dew Point Humidity Pressure Visibility Wind Dir Wind Speed Gust Speed Precip Events Conditions
12:53 AM -15.0 °F - -20.0 °F 78% 30.28 in 10.0 mi Calm Calm - N/A   Partly Cloudy
1:53 AM -16.1 °F - -20.9 °F 79% 30.31 in 10.0 mi Calm Calm - N/A   Partly Cloudy
3:53 AM -20.0 °F -30.7 °F -25.1 °F 78% 30.32 in 10.0 mi NNE 3.5 mph - N/A   Partly Cloudy
4:53 AM -22.0 °F - -27.0 °F 77% 30.35 in 10.0 mi Calm Calm - N/A   Partly Cloudy
5:53 AM -22.0 °F - -27.9 °F 74% 30.35 in 10.0 mi Calm Calm - N/A   Clear
6:53 AM -20.9 °F - -27.0 °F 73% 30.33 in 10.0 mi Calm Calm - N/A   Clear
7:53 AM -22.0 °F -33.0 °F -27.9 °F 74% 30.36 in 10.0 mi NNE 3.5 mph - N/A   Clear
8:53 AM -22.0 °F -33.0 °F -27.9 °F 74% 30.34 in 10.0 mi North 3.5 mph - N/A   Partly Cloudy
9:53 AM -20.0 °F -35.3 °F -26.0 °F 74% 30.32 in 10.0 mi NNW 5.8 mph - N/A   Partly Cloudy
10:53 AM -13.0 °F -25.1 °F -18.0 °F 78% 30.32 in 10.0 mi NNE 4.6 mph - N/A   Partly Cloudy
11:53 AM -13.0 °F -22.7 °F -18.9 °F 75% 30.31 in 10.0 mi North 3.5 mph - N/A   Partly Cloudy
12:53 PM -9.0 °F -20.4 °F -15.0 °F 75% 30.26 in 10.0 mi NNW 4.6 mph - N/A   Partly Cloudy
1:53 PM -11.0 °F - -16.1 °F 78% 30.26 in 10.0 mi Calm Calm - N/A   Partly Cloudy
2:53 PM -15.0 °F - -20.0 °F 78% 30.22 in 10.0 mi Calm Calm - N/A   Scattered Clouds
3:53 PM -13.0 °F -28.6 °F -18.0 °F 78% 30.17 in 10.0 mi North 6.9 mph - N/A   Partly Cloudy
4:53 PM -11.9 °F -23.8 °F -17.0 °F 78% 30.14 in 10.0 mi NNW 4.6 mph - N/A   Partly Cloudy
5:53 PM -9.9 °F -26.3 °F -15.0 °F 78% 30.11 in 10.0 mi NNE 8.1 mph - N/A   Partly Cloudy
6:53 PM -11.0 °F -22.8 °F -16.1 °F 78% 30.09 in 10.0 mi North 4.6 mph - N/A   Partly Cloudy
7:53 PM -11.9 °F - -17.0 °F 78% 30.06 in 10.0 mi Calm Calm - N/A   Partly Cloudy
8:53 PM -11.0 °F -20.4 °F -16.1 °F 78% 30.04 in 10.0 mi North 3.5 mph - N/A   Clear
9:53 PM -11.0 °F -26.2 °F -16.1 °F 78% 30.01 in 10.0 mi North 6.9 mph - N/A   Clear
10:53 PM -9.0 °F -20.4 °F -14.1 °F 79% 29.98 in 10.0 mi North 4.6 mph - N/A   Clear
11:53 PM -7.1 °F -15.9 °F -13.0 °F 75% 29.97 in 10.0 mi NNE 3.5 mph - N/A   Clear